Regional Weather Roundup
Issued by NWS

Home | Current Version | Previous Version | Text Only | Print | Product List | Glossary Off
Versions: 1 2 3 4 5 6 7 8 9 10 11 12 13 14 15 16 17 18 19 20 21 22 23 24 25 26 27 28 29 30 31 32 33 34 35 36 37 38 39 40 41 42 43 44 45 46 47 48 49 50

000
ASUS43 KDTX 101301
RWRMI
MICHIGAN HOURLY REGIONAL WEATHER ROUNDUP
NATIONAL WEATHER SERVICE DETROIT/PONTIAC MI
900 AM EDT THU JUL 10 2014

NOTE: "FAIR" INDICATES FEW OR NO CLOUDS BELOW 12,000 FEET WITH NO
SIGNIFICANT WEATHER AND/OR OBSTRUCTION TO VISIBILITY.

MIZ047>049-052>055-059>063-066>070-074>076-081>083-101400-
SOUTHEAST LOWER MICHIGAN

CITY           SKY/WX    TMP DP  RH WIND       PRES   REMARKS
ADRIAN         SUNNY     65  56  72 N8        30.14R
ALMA           SUNNY     60  51  71 N7        30.17R
ANN ARBOR      MOSUNNY   65  55  70 N6        30.13R
BAD AXE        SUNNY     63  57  83 N6        30.16R
CARO           MOSUNNY   63  60  91 N5        30.15R
DETROIT CITY   SUNNY     71  56  58 N5        30.13R
DETROIT        MOSUNNY   69  57  65 N6        30.13R
FLINT          SUNNY     65  54  67 NE9       30.15R
GROSSE ILE     SUNNY     70  57  64 N6        30.11R
HILLSDALE      SUNNY     62  58  86 CALM      30.15R
HOWELL         SUNNY     61  56  86 N7        30.15R

CITY           SKY/WX    TMP DP  RH WIND       PRES   REMARKS
JACKSON        SUNNY     63  58  83 N5        30.15R
LAMBERTVILLE   SUNNY     64  55  72 N5        30.13R
LANSING        SUNNY     62  54  74 N7        30.17R
LAPEER         FAIR      62  56  80 NE3       30.16R
MASON          SUNNY     60  55  84 NE6       30.16R
MONROE         SUNNY     66  59  77 N5        30.11R
MT. CLEMENS    MOSUNNY   67  59  75 N6        30.12R
PONTIAC        MOSUNNY   65  55  70 N7        30.14R
PORT HOPE        N/A     62  51  67 NE13      30.16R
PORT HURON     SUNNY     64  59  82 CALM      30.14S
TRI CITIES     SUNNY     63  54  72 N10       30.17R
TROY           SUNNY     66  56  71 N3        30.15R
SAGINAW HB     SUNNY     63  55  77 N7        30.16R
$$
MIZ043>046-050>051-056>058-064>065-071>073-077>080-101400-
SOUTHWEST LOWER MICHIGAN

CITY           SKY/WX    TMP DP  RH WIND       PRES   REMARKS
BATTLE CREEK   SUNNY     62  53  72 NE7       30.16R
BENTON HARBOR  SUNNY     63  57  81 E5        30.16R
BIG RAPIDS     SUNNY     58  53  84 N8        30.18R
COLDWATER      SUNNY     63  57  81 N5        30.16R
FREMONT        FAIR      60  53  78 CALM      30.18R
HOLLAND        SUNNY     65  55  70 E3        30.17R
GRAND RAPIDS   SUNNY     63  55  75 NE3       30.17R
IONIA          FAIR      60  53  77 NE5       30.16R
KALAMAZOO      SUNNY     63  54  72 NE5       30.16R
LUDINGTON      SUNNY     59  57  91 CALM      30.18R
MARSHALL       SUNNY     60  54  82 N3        30.15R
MOUNT PLEASANT SUNNY     59  53  78 CALM      30.17R
MUSKEGON       SUNNY     63  53  70 E5        30.17R
SOUTH HAVEN    SUNNY     62  58  87 E5        30.17R
$$
MIZ016>042-101400-
NORTHERN LOWER MICHIGAN

CITY           SKY/WX    TMP DP  RH WIND       PRES   REMARKS
ALPENA         SUNNY     59  50  72 VRB5      30.18R
BEAVER ISLAND  SUNNY     60  55  83 SW3       30.18R
BELLAIRE       SUNNY     56  51  82 CALM      30.18S
CADILLAC       SUNNY     57  49  74 CALM      30.18R
CHARLEVOIX     SUNNY     58  56  91 CALM      30.21R
FRANKFORT      SUNNY     61  55  82 CALM      30.18R
GAYLORD        SUNNY     56  47  71 CALM      30.19R
GRAYLING       SUNNY     53  53 100 CALM      30.19R
HARBOR SPRINGS SUNNY     56  53  89 CALM      30.17S
HOUGHTON LAKE  SUNNY     58  50  75 VRB5      30.19R
MANISTEE       CLOUDY    52  50  93 CALM      30.19R VSB 1/4
OSCODA         SUNNY     61  50  68 N6        30.17R
PELLSTON       SUNNY     59  53  80 CALM      30.18S
ROGERS CITY    SUNNY     59  51  73 NW5       30.19R
TRAVERSE CITY  SUNNY     59  52  77 CALM      30.18R
$$
MIZ007>008-015-101400-
EASTERN UPPER MICHIGAN

CITY           SKY/WX    TMP DP  RH WIND       PRES   REMARKS
KINROSS        SUNNY     55  48  76 W5        30.17S
MACKINAC ISLAN SUNNY     58  52  81 NW6       30.17S
NEWBERRY       SUNNY     58  49  74 W7        30.16S
S. S. MARIE    SUNNY     55  47  74 W5        30.16R
$$
MIZ004>006-011>014-085-101400-
CENTRAL UPPER MICHIGAN

CITY           SKY/WX    TMP DP  RH WIND       PRES   REMARKS
MANISTIQUE     SUNNY     59  52  78 SW5       30.17R
ESCANABA       SUNNY     61  54  77 CALM      30.16R
MENOMINEE      SUNNY     61  54  77 CALM      30.15S
SAWYER-GWINN   SUNNY     55  50  82 W3        30.15R
$$
MIZ001>003-009>011-084-101400-
WESTERN UPPER MICHIGAN

CITY           SKY/WX    TMP DP  RH WIND       PRES   REMARKS
IRON MOUNTAIN  SUNNY     55  48  77 CALM      30.15R
HOUGHTON       SUNNY     59  50  72 CALM      30.11S
COPPER HARBOR    N/A     64  49  57 CALM      30.10S
$$

ABBREVIATIONS USED IN REMARKS
   TC - TEMPERATURE IN CELSIUS
  WCI - WIND CHILL INDEX
   HX - HEAT INDEX
  VSB - VISIBILITY



USA.gov is the U.S. government's official web portal to all federal, state and local government web resources and services.